�N����,����,�g�[���i���ԁj���x,�g�[�����x,��g�[���i���ցj���x,����
 2003/03/01, 0:00,11.1,39,11.3,10.7
 2003/03/01, 0:15,14.7,70.5,10.4,10.6
 2003/03/01, 0:30,14.3,71,10.2,10.6
 2003/03/01, 0:45,14.1,71.5,10.2,10.6
 2003/03/01, 1:00,13.8,71,10.1,10.6
 2003/03/01, 1:15,13.6,71,10.1,10.6
 2003/03/01, 1:30,13.5,71,10.1,10.7
 2003/03/01, 1:45,13.4,71.5,10.1,10.6
 2003/03/01, 2:00,13.2,72,10,10.6
 2003/03/01, 2:15,13.1,71.5,10,10.6
 2003/03/01, 2:30,13,72,10,10.7
 2003/03/01, 2:45,12.9,71.5,10,10.7
 2003/03/01, 3:00,12.7,72,9.9,10.7
 2003/03/01, 3:15,12.7,72,9.9,10.7
 2003/03/01, 3:30,12.6,72,9.9,10.7
 2003/03/01, 3:45,12.6,72,9.9,10.7
 2003/03/01, 4:00,12.4,72,9.9,10.7
 2003/03/01, 4:15,12.4,72,9.9,10.7
 2003/03/01, 4:30,12.4,72,9.9,10.7
 2003/03/01, 4:45,12.4,72,9.9,10.7
 2003/03/01, 5:00,12.2,73,9.9,10.8
 2003/03/01, 5:15,12.2,72.5,9.9,10.7
 2003/03/01, 5:30,12.1,72,9.9,10.7
 2003/03/01, 5:45,12.1,72,9.9,10.8
 2003/03/01, 6:00,12.1,72,9.9,10.7
 2003/03/01, 6:15,12.1,71.5,9.8,10.8
 2003/03/01, 6:30,12.1,72,9.8,10.8
 2003/03/01, 6:45,12,71,9.8,10.8
 2003/03/01, 7:00,11.9,71,9.8,10.8
 2003/03/01, 7:15,11.9,71,9.8,10.8
 2003/03/01, 7:30,11.9,71,9.8,10.8
 2003/03/01, 7:45,12.8,72,9.8,10.8
 2003/03/01, 8:00,15.9,70,9.8,10.8
 2003/03/01, 8:15,15.4,73,9.8,10.8
 2003/03/01, 8:30,15.7,74,9.8,10.8
 2003/03/01, 8:45,15.6,69.5,9.8,10.8
 2003/03/01, 9:00,14.5,74,9.8,10.8
 2003/03/01, 9:15,15.9,71.5,9.8,10.8
 2003/03/01, 9:30,16.2,71,9.8,10.8
 2003/03/01, 9:45,16.5,70,9.8,10.8
 2003/03/01,10:00,16.8,70,9.8,10.8
 2003/03/01,10:15,16.9,70,9.9,10.8
 2003/03/01,10:30,17.1,69,9.8,10.8
 2003/03/01,10:45,15.1,67,9.8,10.8
 2003/03/01,11:00,14.4,70,9.8,10.8
 2003/03/01,11:15,14.2,70,9.9,10.9
 2003/03/01,11:30,13.9,70,9.9,10.9
 2003/03/01,11:45,13.7,70,9.9,10.8
 2003/03/01,12:00,13.5,71,9.9,10.9
 2003/03/01,12:15,13.4,70.5,9.9,10.9
 2003/03/01,12:30,13.3,70,9.9,10.9
 2003/03/01,12:45,13.2,70.5,9.9,10.9
 2003/03/01,13:00,13.1,70,9.9,10.9
 2003/03/01,13:15,13,70.5,9.9,10.9
 2003/03/01,13:30,12.9,71,9.9,10.9
 2003/03/01,13:45,12.9,70.5,9.9,10.9
 2003/03/01,14:00,12.8,70,9.9,10.9
 2003/03/01,14:15,12.8,70,9.9,10.9
 2003/03/01,14:30,12.7,71,10,10.9
 2003/03/01,14:45,12.6,71,9.9,10.9
 2003/03/01,15:00,12.6,71,10,10.9
 2003/03/01,15:15,12.5,71,10,10.9
 2003/03/01,15:30,12.5,71,10,10.9
 2003/03/01,15:45,12.4,71,10,10.9
 2003/03/01,16:00,12.4,71,10,10.9
 2003/03/01,16:15,12.4,71,10,10.9
 2003/03/01,16:30,12.3,71,10,10.9
 2003/03/01,16:45,12.3,71,10,10.9
 2003/03/01,17:00,12.3,71,10,10.9
 2003/03/01,17:15,12.2,71,10,10.9
 2003/03/01,17:30,12.2,71,10,10.9
 2003/03/01,17:45,12.2,71,10,11
 2003/03/01,18:00,12.1,71,10.1,10.9
 2003/03/01,18:15,12.1,71,10,11
 2003/03/01,18:30,12.1,71,10,10.9
 2003/03/01,18:45,12.1,71,10.1,11
 2003/03/01,19:00,12.1,71,10,11
 2003/03/01,19:15,12,71,10.1,11
 2003/03/01,19:30,12.1,71,10.1,11
 2003/03/01,19:45,12,71,10.1,11
 2003/03/01,20:00,12,72,10.2,11
 2003/03/01,20:15,12,71.5,10.1,11
 2003/03/01,20:30,12,71,10.1,11
 2003/03/01,20:45,12,72,10.1,11
 2003/03/01,21:00,12,72,10.1,11
 2003/03/01,21:15,12,71.5,10.1,11.1
 2003/03/01,21:30,12,71,10.2,11
 2003/03/01,21:45,12,71.5,10.2,11.1
 2003/03/01,22:00,14.8,75,10.1,11.1
 2003/03/01,22:15,15.1,75,10.1,11.1
 2003/03/01,22:30,15.5,75,10.2,11.1
 2003/03/01,22:45,15.9,75,10.2,11.1
 2003/03/01,23:00,16.5,77,10.2,11.1
 2003/03/01,23:15,15.6,73.5,10.2,11.1
 2003/03/01,23:30,14.7,72,10.4,11.1
 2003/03/01,23:45,16.5,76,10.5,11.1
 2003/03/02, 0:00,16.9,75,10.5,11.1
 2003/03/02, 0:15,17.2,73.5,10.4,11.1
 2003/03/02, 0:30,17.5,73,10.4,11.1
 2003/03/02, 0:45,17.8,71,10.4,11.1
 2003/03/02, 1:00,18.1,70,10.4,11.2
 2003/03/02, 1:15,16.6,70,10.4,11.1
 2003/03/02, 1:30,15.9,71,10.4,11.2
 2003/03/02, 1:45,15.6,71,10.4,11.2
 2003/03/02, 2:00,15.5,71,10.4,11.2
 2003/03/02, 2:15,15.2,71,10.4,11.2
 2003/03/02, 2:30,15.1,71,10.3,11.2
 2003/03/02, 2:45,14.9,71,10.4,11.2
 2003/03/02, 3:00,14.8,70,10.3,11.2
 2003/03/02, 3:15,14.6,71,10.4,11.2
 2003/03/02, 3:30,14.4,71,10.4,11.2
 2003/03/02, 3:45,14.3,70,10.3,11.2
 2003/03/02, 4:00,14.2,71,10.4,11.2
 2003/03/02, 4:15,14,70.5,10.2,11.2
 2003/03/02, 4:30,13.9,70,10.3,11.2
 2003/03/02, 4:45,13.8,70,10.2,11.3
 2003/03/02, 5:00,13.7,70,10.3,11.3
 2003/03/02, 5:15,13.6,70,10.2,11.3
 2003/03/02, 5:30,13.4,70,10.2,11.3
 2003/03/02, 5:45,13.4,70,10.1,11.3
 2003/03/02, 6:00,13.2,70,10.1,11.3
 2003/03/02, 6:15,13.2,70,10.1,11.3
 2003/03/02, 6:30,13.1,70,10.1,11.3
 2003/03/02, 6:45,13,70,10,11.3
 2003/03/02, 7:00,12.9,70,10,11.3
 2003/03/02, 7:15,15.3,71.5,10.1,11.3
 2003/03/02, 7:30,15.6,75,10,11.3
 2003/03/02, 7:45,16,75.5,10.1,11.4
 2003/03/02, 8:00,15.8,72,10,11.3
 2003/03/02, 8:15,15.1,73,10.1,11.3
 2003/03/02, 8:30,14.7,73,10.1,11.4
 2003/03/02, 8:45,15.6,72.5,10.2,11.4
 2003/03/02, 9:00,16.4,72,10.1,11.4
 2003/03/02, 9:15,16.5,71.5,10.2,11.4
 2003/03/02, 9:30,17.1,69,10.4,11.4
 2003/03/02, 9:45,15.1,67.5,10.8,11.4
 2003/03/02,10:00,16.2,68,11,11.4
 2003/03/02,10:15,17.6,68.5,11.2,11.4
 2003/03/02,10:30,18.4,70,11.6,11.4
 2003/03/02,10:45,19,71,11.8,11.4
 2003/03/02,11:00,19.9,69,12.1,11.5
 2003/03/02,11:15,20.5,69,12.4,11.4
 2003/03/02,11:30,21,69,12.6,11.5
 2003/03/02,11:45,21.4,68,12.9,11.5
 2003/03/02,12:00,21.8,67,13.1,11.5
 2003/03/02,12:15,20.8,66.5,13.3,11.5
 2003/03/02,12:30,20.3,66,13.4,11.5
 2003/03/02,12:45,20.2,65,13.4,11.5
 2003/03/02,13:00,20.2,64,13.4,11.5
 2003/03/02,13:15,20.4,64,13.4,11.6
 2003/03/02,13:30,20.5,64,13.4,11.6
 2003/03/02,13:45,20.5,63.5,13.4,11.6
 2003/03/02,14:00,20.5,63,13.4,11.6
 2003/03/02,14:15,20.6,63,13.6,11.6
 2003/03/02,14:30,20.5,62,13.5,11.7
 2003/03/02,14:45,20.4,62.5,13.6,11.7
 2003/03/02,15:00,20.1,62,13.7,11.7
 2003/03/02,15:15,20,61.5,13.6,11.7
 2003/03/02,15:30,19.9,62,13.8,11.7
 2003/03/02,15:45,19.8,61.5,13.8,11.8
 2003/03/02,16:00,19.7,62,13.8,11.8
 2003/03/02,16:15,19.5,62,13.8,11.8
 2003/03/02,16:30,19.3,63,13.7,11.8
 2003/03/02,16:45,19.1,62.5,13.8,11.8
 2003/03/02,17:00,18.9,65,13.7,11.9
 2003/03/02,17:15,18.7,68.5,13.8,11.9
 2003/03/02,17:30,18.5,70,13.7,11.9
 2003/03/02,17:45,18.1,70.5,13.6,11.9
 2003/03/02,18:00,18,69,13.6,12
 2003/03/02,18:15,17.9,69,13.6,12
 2003/03/02,18:30,17.8,69,13.5,12
 2003/03/02,18:45,17.6,68,13.4,12.1
 2003/03/02,19:00,17.5,68,13.3,12.1
 2003/03/02,19:15,17.5,68,13.2,12.1
 2003/03/02,19:30,17.3,68,13.2,12.1
 2003/03/02,19:45,17.1,68,13.1,12.1
 2003/03/02,20:00,17,68,13.1,12.2
 2003/03/02,20:15,16.9,68,13,12.2
 2003/03/02,20:30,16.8,68,12.9,12.2
 2003/03/02,20:45,16.6,68,12.9,12.2
 2003/03/02,21:00,16.5,68,12.8,12.2
 2003/03/02,21:15,16.4,68,12.8,12.2
 2003/03/02,21:30,16.2,68,12.7,12.3
 2003/03/02,21:45,16.5,68,12.6,12.3
 2003/03/02,22:00,17.9,66,12.6,12.3
 2003/03/02,22:15,18.2,66,12.6,12.3
 2003/03/02,22:30,18.7,66,12.7,12.3
 2003/03/02,22:45,19.1,66,12.6,12.4
 2003/03/02,23:00,19.4,66,12.6,12.3
 2003/03/02,23:15,19.9,64.5,12.6,12.3
 2003/03/02,23:30,20,64,12.5,12.4
 2003/03/02,23:45,19.1,61.5,12.4,12.4
 2003/03/03, 0:00,17.1,63,12.4,12.4
 2003/03/03, 0:15,16.5,65,12.4,12.4
 2003/03/03, 0:30,16.2,65,12.3,12.4
 2003/03/03, 0:45,15.9,65,12.3,12.4
 2003/03/03, 1:00,15.7,65,12.2,12.4
 2003/03/03, 1:15,15.4,65,12.2,12.4
 2003/03/03, 1:30,15.6,65,12.1,12.5
 2003/03/03, 1:45,15.3,65,12.1,12.4
 2003/03/03, 2:00,15.2,65,12,12.4
 2003/03/03, 2:15,14.9,65.5,11.9,12.4
 2003/03/03, 2:30,14.8,66,11.9,12.5
 2003/03/03, 2:45,14.6,65,11.8,12.4
 2003/03/03, 3:00,14.6,65,11.8,12.5
 2003/03/03, 3:15,14.4,66,11.7,12.5
 2003/03/03, 3:30,14.3,66,11.6,12.5
 2003/03/03, 3:45,14.1,66,11.6,12.5
 2003/03/03, 4:00,14.1,67,11.5,12.5
 2003/03/03, 4:15,13.9,67,11.4,12.5
 2003/03/03, 4:30,13.9,67,11.4,12.5
 2003/03/03, 4:45,13.7,67,11.4,12.5
 2003/03/03, 5:00,13.6,67,11.4,12.5
 2003/03/03, 5:15,13.5,67,11.2,12.5
 2003/03/03, 5:30,13.4,67,11.2,12.5
 2003/03/03, 5:45,13.3,67,11.2,12.5
 2003/03/03, 6:00,14.9,68,11.1,12.5
 2003/03/03, 6:15,15.6,69,11.1,12.4
 2003/03/03, 6:30,15.9,69,11,12.4
 2003/03/03, 6:45,16.2,69,11,12.4
 2003/03/03, 7:00,16.6,69,10.9,12.4
 2003/03/03, 7:15,16.9,68,10.9,12.5
 2003/03/03, 7:30,17.1,67,10.9,12.4
 2003/03/03, 7:45,17.2,66,10.8,12.4
 2003/03/03, 8:00,16.1,67,10.9,12.4
 2003/03/03, 8:15,17,67.5,10.8,12.4
 2003/03/03, 8:30,17.4,66,10.8,12.4
 2003/03/03, 8:45,17.9,65.5,10.9,12.4
 2003/03/03, 9:00,18,65,10.9,12.4
 2003/03/03, 9:15,17,63,10.8,12.4
 2003/03/03, 9:30,15.6,63,10.8,12.4
 2003/03/03, 9:45,15,64.5,10.8,12.4
 2003/03/03,10:00,14.8,65,10.8,12.4
 2003/03/03,10:15,14.6,66,10.8,12.3
 2003/03/03,10:30,14.4,66,10.8,12.4
 2003/03/03,10:45,14.2,66.5,10.8,12.4
 2003/03/03,11:00,14.1,67,10.8,12.3
 2003/03/03,11:15,13.9,67,10.8,12.3
 2003/03/03,11:30,13.8,67,10.7,12.3
 2003/03/03,11:45,13.8,67,10.7,12.3
 2003/03/03,12:00,13.7,67,10.7,12.3
 2003/03/03,12:15,13.6,67,10.8,12.3
 2003/03/03,12:30,13.5,67,10.8,12.3
 2003/03/03,12:45,13.4,68,10.7,12.3
 2003/03/03,13:00,13.4,68,10.8,12.3
 2003/03/03,13:15,13.4,68,10.8,12.3
 2003/03/03,13:30,13.3,68,10.8,12.3
 2003/03/03,13:45,13.2,68,10.7,12.3
 2003/03/03,14:00,13.2,68,10.8,12.3
 2003/03/03,14:15,13.1,68,10.8,12.2
 2003/03/03,14:30,13.1,68,10.8,12.3
 2003/03/03,14:45,13.1,68,10.8,12.2
 2003/03/03,15:00,13,69,10.8,12.3
 2003/03/03,15:15,13,68.5,10.8,12.2
 2003/03/03,15:30,12.9,69,10.8,12.2
 2003/03/03,15:45,12.9,69,10.9,12.2
 2003/03/03,16:00,12.9,69,10.8,12.2
 2003/03/03,16:15,12.9,69,10.8,12.2
 2003/03/03,16:30,12.8,69,10.8,12.2
 2003/03/03,16:45,12.8,69,10.9,12.2
 2003/03/03,17:00,12.8,69,10.9,12.2
 2003/03/03,17:15,12.8,69,10.9,12.2
 2003/03/03,17:30,12.7,69,11,12.2
 2003/03/03,17:45,12.7,69,10.9,12.2
 2003/03/03,18:00,12.6,69,10.9,12.2
 2003/03/03,18:15,12.6,69,10.9,12.2
 2003/03/03,18:30,12.6,69,10.9,12.2
 2003/03/03,18:45,12.6,69,10.9,12.2
 2003/03/03,19:00,12.5,69,10.8,12.2
 2003/03/03,19:15,12.4,69,10.9,12.2
 2003/03/03,19:30,12.4,69,10.9,12.2
 2003/03/03,19:45,12.3,69,10.9,12.2
 2003/03/03,20:00,12.3,69,10.7,12.2
 2003/03/03,20:15,12.2,69,10.8,12.2
 2003/03/03,20:30,12.1,69,10.7,12.2
 2003/03/03,20:45,12.1,69,10.6,12.2
 2003/03/03,21:00,12,69,10.6,12.2
 2003/03/03,21:15,11.9,69,10.6,12.2
 2003/03/03,21:30,11.8,69,10.5,12.2
 2003/03/03,21:45,11.8,69,10.4,12.2
 2003/03/03,22:00,11.7,69,10.4,12.2
 2003/03/03,22:15,11.6,69,10.4,12.2
 2003/03/03,22:30,11.5,69,10.3,12.2
 2003/03/03,22:45,11.4,69,10.2,12.2
 2003/03/03,23:00,13.5,72,10.1,12.1
 2003/03/03,23:15,16,69.5,10,12.1
 2003/03/03,23:30,15.5,69,10.1,12.2
 2003/03/03,23:45,15.6,68,10,12.1
 2003/03/04, 0:00,15.5,68,10.1,12.1
 2003/03/04, 0:15,15.7,68,9.9,12.1
 2003/03/04, 0:30,15.3,65,9.7,12.1
 2003/03/04, 0:45,14.3,67,9.6,12.1
 2003/03/04, 1:00,13.9,67,9.6,12.1
 2003/03/04, 1:15,13.5,67,9.5,12.1
 2003/03/04, 1:30,13.2,66,9.5,12
 2003/03/04, 1:45,13,67,9.4,12
 2003/03/04, 2:00,12.7,67,9.3,12
 2003/03/04, 2:15,12.6,67,9.2,12
 2003/03/04, 2:30,12.4,67,9.1,12
 2003/03/04, 2:45,12.2,66,9.1,12
 2003/03/04, 3:00,12,67,8.9,12
 2003/03/04, 3:15,11.8,66.5,8.9,12
 2003/03/04, 3:30,11.7,66,8.8,11.9
 2003/03/04, 3:45,11.4,66,8.7,11.9
 2003/03/04, 4:00,11.3,67,8.5,11.9
 2003/03/04, 4:15,11.1,67,8.5,11.9
 2003/03/04, 4:30,11,67,8.4,11.9
 2003/03/04, 4:45,10.9,66.5,8.2,11.9
 2003/03/04, 5:00,10.7,67,8.3,11.8
 2003/03/04, 5:15,10.6,67,8.1,11.8
 2003/03/04, 5:30,10.5,67,8.1,11.8
 2003/03/04, 5:45,10.4,67,7.9,11.8
 2003/03/04, 6:00,10.2,67,7.9,11.7
 2003/03/04, 6:15,10.1,67,7.8,11.7
 2003/03/04, 6:30,10,67,7.7,11.7
 2003/03/04, 6:45,9.8,67,7.7,11.6
 2003/03/04, 7:00,9.8,67,7.6,11.6
 2003/03/04, 7:15,9.8,67.5,7.6,11.6
 2003/03/04, 7:30,12.4,70,7.5,11.5
 2003/03/04, 7:45,15.2,69,7.4,11.5
 2003/03/04, 8:00,14.8,71,7.4,11.5
 2003/03/04, 8:15,15.8,69,7.4,11.4
 2003/03/04, 8:30,15.6,69,7.5,11.4
 2003/03/04, 8:45,15.3,69,7.6,11.4
 2003/03/04, 9:00,13.4,65,7.6,11.4
 2003/03/04, 9:15,13,66,7.7,11.3
 2003/03/04, 9:30,12.8,66,7.8,11.3
 2003/03/04, 9:45,12.9,66,8.1,11.3
 2003/03/04,10:00,12.9,66,8.5,11.2
 2003/03/04,10:15,12.9,66,8.8,11.2
 2003/03/04,10:30,13,65,9.1,11.2
 2003/03/04,10:45,12.9,64.5,8.9,11.1
 2003/03/04,11:00,13.1,63,9.2,11.1
 2003/03/04,11:15,13.3,63,9.5,11.1
 2003/03/04,11:30,13.4,63,9.6,11
 2003/03/04,11:45,13.6,62,9.7,11
 2003/03/04,12:00,13.6,62,9.8,11
 2003/03/04,12:15,13.6,61.5,9.8,10.9
 2003/03/04,12:30,13.4,62,9.5,10.9
 2003/03/04,12:45,13.7,61.5,9.6,10.9
 2003/03/04,13:00,13.8,60,9.6,10.8
 2003/03/04,13:15,13.9,60,9.6,10.8
 2003/03/04,13:30,14,60,9.6,10.8
 2003/03/04,13:45,14.1,60,9.6,10.8
 2003/03/04,14:00,14.1,60,9.6,10.7
 2003/03/04,14:15,14.1,59,9.6,10.7
 2003/03/04,14:30,13.9,59,9.6,10.7
 2003/03/04,14:45,13.6,59,9.4,10.6
 2003/03/04,15:00,13.7,59,9.4,10.6
 2003/03/04,15:15,13.6,59,9.4,10.6
 2003/03/04,15:30,13.3,60,9.3,10.6
 2003/03/04,15:45,13.1,60,9.2,10.6
 2003/03/04,16:00,12.9,60,9.2,10.5
 2003/03/04,16:15,12.8,62,9.1,10.5
 2003/03/04,16:30,12.6,63,9,10.5
 2003/03/04,16:45,12.4,63,8.9,10.4
 2003/03/04,17:00,12.4,63,8.8,10.4
 2003/03/04,17:15,12.1,63,8.8,10.4
 2003/03/04,17:30,12,63,8.6,10.4
 2003/03/04,17:45,11.9,63,8.5,10.3
 2003/03/04,18:00,11.7,63,8.4,10.3
 2003/03/04,18:15,11.5,62.5,8.4,10.3
 2003/03/04,18:30,11.4,63,8.2,10.3
 2003/03/04,18:45,11.2,63,8.1,10.2
 2003/03/04,19:00,11.1,63,8,10.2
 2003/03/04,19:15,10.9,63,7.9,10.2
 2003/03/04,19:30,10.9,63,7.9,10.2
 2003/03/04,19:45,10.7,63,7.8,10.2
 2003/03/04,20:00,10.6,63,7.7,10.1
 2003/03/04,20:15,10.4,63,7.6,10.1
 2003/03/04,20:30,10.3,63,7.6,10.1
 2003/03/04,20:45,10.1,63,7.4,10.1
 2003/03/04,21:00,10.1,63,7.4,10
 2003/03/04,21:15,10,63,7.3,10
 2003/03/04,21:30,11.7,66,7.3,10
 2003/03/04,21:45,15.2,65.5,7.2,9.9
 2003/03/04,22:00,14.9,65,7.1,9.9
 2003/03/04,22:15,14.4,65,7,9.9
 2003/03/04,22:30,14.4,65,7,9.9
 2003/03/04,22:45,14.4,64,6.9,9.9
 2003/03/04,23:00,14.6,63,6.9,9.9
 2003/03/04,23:15,14.7,63,6.8,9.8
 2003/03/04,23:30,15,62,6.8,9.8
 2003/03/04,23:45,14.9,62,6.7,9.8
 2003/03/05, 0:00,15,62,6.7,9.8
 2003/03/05, 0:15,15.1,61.5,6.6,9.7
 2003/03/05, 0:30,15.4,60,6.5,9.7
 2003/03/05, 0:45,15.4,59.5,6.4,9.7
 2003/03/05, 1:00,15.6,58,6.4,9.7
 2003/03/05, 1:15,15.6,59.5,6.4,9.7
 2003/03/05, 1:30,15.3,63,6.5,9.6
 2003/03/05, 1:45,13.8,66,6.4,9.6
 2003/03/05, 2:00,13.1,68,6.4,9.6
 2003/03/05, 2:15,12.4,73,6.4,9.6
 2003/03/05, 2:30,12,74,6.4,9.5
 2003/03/05, 2:45,11.8,73,6.3,9.5
 2003/03/05, 3:00,11.3,73,6.3,9.5
 2003/03/05, 3:15,11.1,73,6.3,9.5
 2003/03/05, 3:30,10.9,73,6.3,9.5
 2003/03/05, 3:45,10.7,73,6.2,9.4
 2003/03/05, 4:00,10.5,73,6.2,9.4
 2003/03/05, 4:15,10.4,73,6.1,9.4
 2003/03/05, 4:30,10.2,73,6.1,9.4
 2003/03/05, 4:45,13.2,69.5,6.1,9.4
 2003/03/05, 5:00,15.8,71,6,9.3
 2003/03/05, 5:15,14.6,59.5,6,9.3
 2003/03/05, 5:30,11.9,65,6,9.3
 2003/03/05, 5:45,11.1,67.5,6,9.2
 2003/03/05, 6:00,10.8,67,6,9.2
 2003/03/05, 6:15,10.4,68,6,9.2
 2003/03/05, 6:30,10.1,69,6,9.2
 2003/03/05, 6:45,9.9,70.5,5.9,9.2
 2003/03/05, 7:00,10.5,71,5.9,9.1
 2003/03/05, 7:15,15.6,70,5.9,9.1
 2003/03/05, 7:30,16.1,69,5.9,9.1
 2003/03/05, 7:45,15.1,69.5,5.9,9.1
 2003/03/05, 8:00,13.4,68,5.9,9.1
 2003/03/05, 8:15,12.9,69,5.9,9
 2003/03/05, 8:30,12.3,70,6,9
 2003/03/05, 8:45,11.9,72.5,6,9
 2003/03/05, 9:00,11.7,73,6,9
 2003/03/05, 9:15,11.5,74,6,9
 2003/03/05, 9:30,11.3,75,6,9
 2003/03/05, 9:45,11.1,74.5,6,8.9
 2003/03/05,10:00,11.2,72,6.1,8.9
 2003/03/05,10:15,11.1,75,6.1,8.9
 2003/03/05,10:30,10.9,75,6.3,8.9
 2003/03/05,10:45,10.9,75,6.2,8.9
 2003/03/05,11:00,10.9,73,6.3,8.8
 2003/03/05,11:15,10.9,72.5,6.3,8.8
 2003/03/05,11:30,10.7,74,6.3,8.8
 2003/03/05,11:45,10.6,76.5,6.3,8.8
 2003/03/05,12:00,10.7,75,6.3,8.8
 2003/03/05,12:15,11.1,69,6.6,8.8
 2003/03/05,12:30,11,68,6.7,8.7
 2003/03/05,12:45,11,69,6.7,8.7
 2003/03/05,13:00,10.9,69,6.7,8.7
 2003/03/05,13:15,10.8,70.5,6.7,8.7
 2003/03/05,13:30,10.8,69,6.7,8.7
 2003/03/05,13:45,10.8,69,6.7,8.6
 2003/03/05,14:00,10.8,69,6.7,8.7
 2003/03/05,14:15,10.8,69,6.7,8.7
 2003/03/05,14:30,10.8,69,6.8,8.6
 2003/03/05,14:45,10.9,68,6.9,8.6
 2003/03/05,15:00,10.8,69,6.9,8.6
 2003/03/05,15:15,10.6,70,6.9,8.6
 2003/03/05,15:30,10.6,71,6.9,8.6
 2003/03/05,15:45,10.6,71.5,6.9,8.6
 2003/03/05,16:00,10.4,72,6.9,8.6
 2003/03/05,16:15,10.4,73,6.9,8.6
 2003/03/05,16:30,10.3,72,6.9,8.6
 2003/03/05,16:45,10.3,71,6.9,8.6
 2003/03/05,17:00,10.3,70,6.9,8.6
 2003/03/05,17:15,10.2,70,6.9,8.6
 2003/03/05,17:30,10.1,70,6.9,8.5
 2003/03/05,17:45,10.1,69.5,6.8,8.6
 2003/03/05,18:00,10,69,6.8,8.5
 2003/03/05,18:15,9.9,69,6.8,8.5
 2003/03/05,18:30,9.8,69,6.8,8.5
 2003/03/05,18:45,9.7,69,6.7,8.5
 2003/03/05,19:00,9.6,69,6.7,8.5
 2003/03/05,19:15,9.6,69,6.7,8.5
 2003/03/05,19:30,9.5,69,6.6,8.5
 2003/03/05,19:45,11.1,68.5,6.6,8.5
 2003/03/05,20:00,14.9,69,6.6,8.5
 2003/03/05,20:15,14.9,72.5,6.6,8.5
 2003/03/05,20:30,16.1,69,6.5,8.5
 2003/03/05,20:45,15.9,69,6.6,8.5
 2003/03/05,21:00,14.8,64,6.5,8.5
 2003/03/05,21:15,15.6,64,6.4,8.5
 2003/03/05,21:30,16.1,64,6.4,8.5
 2003/03/05,21:45,16.6,69,6.4,8.5
 2003/03/05,22:00,16.4,67,6.3,8.5
 2003/03/05,22:15,14.9,64,6.3,8.5
 2003/03/05,22:30,13,63,6.3,8.5
 2003/03/05,22:45,12.4,64.5,6.3,8.4
 2003/03/05,23:00,11.9,65,6.3,8.5
 2003/03/05,23:15,11.6,65,6.3,8.4
 2003/03/05,23:30,11.3,66,6.2,8.5
 2003/03/05,23:45,11,66,6.2,8.4
 2003/03/06, 0:00,10.8,66,6.1,8.4
 2003/03/06, 0:15,12.6,65,6.1,8.4
 2003/03/06, 0:30,16.4,64,6.1,8.4
 2003/03/06, 0:45,15.5,63.5,6.1,8.4
 2003/03/06, 1:00,15.3,64,6.1,8.4
 2003/03/06, 1:15,15.4,64,6.1,8.4
 2003/03/06, 1:30,15.1,64,6.1,8.4
 2003/03/06, 1:45,15.2,64.5,6,8.4
 2003/03/06, 2:00,15.5,65,6,8.4
 2003/03/06, 2:15,15.6,64,6,8.4
 2003/03/06, 2:30,15.5,64,5.9,8.4
 2003/03/06, 2:45,15.6,64,5.9,8.4
 2003/03/06, 3:00,15.7,63,5.9,8.4
 2003/03/06, 3:15,15.6,64,5.9,8.4
 2003/03/06, 3:30,15.7,63,5.8,8.3
 2003/03/06, 3:45,15.4,62,5.9,8.4
 2003/03/06, 4:00,14.3,63,5.8,8.4
 2003/03/06, 4:15,13.6,63,5.8,8.3
 2003/03/06, 4:30,13.2,63,5.8,8.3
 2003/03/06, 4:45,12.9,63.5,5.8,8.3
 2003/03/06, 5:00,12.6,64,5.8,8.3
 2003/03/06, 5:15,12.3,63,5.8,8.3
 2003/03/06, 5:30,12.1,63,5.8,8.3
 2003/03/06, 5:45,11.9,63.5,5.8,8.3
 2003/03/06, 6:00,11.7,64,5.7,8.3
 2003/03/06, 6:15,11.6,64,5.8,8.3
 2003/03/06, 6:30,11.4,64,5.7,8.3
 2003/03/06, 6:45,11.2,64,5.7,8.3
 2003/03/06, 7:00,11.5,65,5.8,8.3
 2003/03/06, 7:15,16.1,65,5.8,8.3
 2003/03/06, 7:30,16.1,64,5.8,8.3
 2003/03/06, 7:45,15.8,64,5.8,8.3
 2003/03/06, 8:00,16.1,62,5.8,8.2
 2003/03/06, 8:15,15.5,62.5,5.8,8.2
 2003/03/06, 8:30,15.4,62,5.9,8.2
 2003/03/06, 8:45,15.2,61.5,5.9,8.2
 2003/03/06, 9:00,15.1,61,6.1,8.2
 2003/03/06, 9:15,15,58,6.2,8.2
 2003/03/06, 9:30,15.5,59,6.3,8.2
 2003/03/06, 9:45,15.2,57.5,6.7,8.2
 2003/03/06,10:00,13.2,60,7,8.2
 2003/03/06,10:15,12.9,61,7.2,8.2
 2003/03/06,10:30,12.6,62,7.5,8.2
 2003/03/06,10:45,12.4,61,7.8,8.2
 2003/03/06,11:00,12.3,61,7.9,8.2
 2003/03/06,11:15,12.2,61,7.9,8.2
 2003/03/06,11:30,12.2,61,7.9,8.2
 2003/03/06,11:45,12.1,61.5,7.9,8.2
 2003/03/06,12:00,12,62,7.9,8.2
 2003/03/06,12:15,11.9,62,7.9,8.2
 2003/03/06,12:30,11.9,62,8,8.2
 2003/03/06,12:45,11.9,63,8,8.2
 2003/03/06,13:00,11.8,63,8.1,8.2
 2003/03/06,13:15,11.8,63,8.1,8.2
 2003/03/06,13:30,11.8,63,8.2,8.3
 2003/03/06,13:45,11.7,63,8.2,8.3
 2003/03/06,14:00,11.7,64,8.2,8.3
 2003/03/06,14:15,11.6,64,8.3,8.3
 2003/03/06,14:30,11.6,64,8.3,8.3
 2003/03/06,14:45,11.6,64,8.3,8.3
 2003/03/06,15:00,11.5,64,8.4,8.3
 2003/03/06,15:15,11.5,64,8.4,8.3
 2003/03/06,15:30,11.4,65,8.4,8.4
 2003/03/06,15:45,11.4,65,8.4,8.4
 2003/03/06,16:00,11.4,65,8.4,8.4
 2003/03/06,16:15,11.2,65.5,8.4,8.4
 2003/03/06,16:30,11.2,65,8.5,8.4
 2003/03/06,16:45,11.1,65.5,8.4,8.4
 2003/03/06,17:00,11.1,66,8.5,8.4
 2003/03/06,17:15,11.1,66,8.5,8.4
 2003/03/06,17:30,11,66,8.5,8.5
 2003/03/06,17:45,11,66,8.6,8.5
 2003/03/06,18:00,10.9,66,8.6,8.5
 2003/03/06,18:15,10.9,66,8.6,8.5
 2003/03/06,18:30,10.8,66,8.5,8.5
 2003/03/06,18:45,10.8,66,8.6,8.6
 2003/03/06,19:00,10.8,67,8.6,8.6
 2003/03/06,19:15,10.8,66.5,8.6,8.6
 2003/03/06,19:30,10.6,67,8.6,8.6
 2003/03/06,19:45,10.6,67,8.6,8.6
 2003/03/06,20:00,10.6,67,8.5,8.6
 2003/03/06,20:15,10.6,67,8.6,8.6
 2003/03/06,20:30,10.6,67,8.6,8.6
 2003/03/06,20:45,10.6,67,8.6,8.6
 2003/03/06,21:00,10.4,68,8.5,8.7
 2003/03/06,21:15,10.4,67.5,8.6,8.7
 2003/03/06,21:30,10.4,68,8.6,8.7
 2003/03/06,21:45,10.4,68,8.6,8.7
 2003/03/06,22:00,10.5,68,8.5,8.7
 2003/03/06,22:15,10.4,68,8.6,8.8
 2003/03/06,22:30,10.3,68,8.6,8.8
 2003/03/06,22:45,13.4,68.5,8.6,8.8
 2003/03/06,23:00,15.2,68,8.6,8.8
 2003/03/06,23:15,14.7,69,8.6,8.8
 2003/03/06,23:30,14.6,70,8.7,8.9
 2003/03/06,23:45,15,69.5,8.6,8.9
 2003/03/07, 0:00,14.5,65,8.7,8.9
 2003/03/07, 0:15,13.3,67,8.8,8.9
 2003/03/07, 0:30,12.8,68,8.8,8.9
 2003/03/07, 0:45,12.4,68,8.8,8.9
 2003/03/07, 1:00,12.2,69,8.9,8.9
 2003/03/07, 1:15,12.1,69,8.9,8.9
 2003/03/07, 1:30,11.9,69,9,9
 2003/03/07, 1:45,11.8,70,9,9
 2003/03/07, 2:00,11.7,70,9,9
 2003/03/07, 2:15,11.6,70,9.1,9
 2003/03/07, 2:30,11.5,70,9.1,9
 2003/03/07, 2:45,11.4,70.5,9.1,9
 2003/03/07, 3:00,11.4,71,9.1,9.1
 2003/03/07, 3:15,11.3,71,9.1,9.1
 2003/03/07, 3:30,11.3,71,9.1,9.1
 2003/03/07, 3:45,11.2,71,9.2,9.1
 2003/03/07, 4:00,11.1,71,9.1,9.1
 2003/03/07, 4:15,11.1,71,9.2,9.1
 2003/03/07, 4:30,11.1,71,9.2,9.2
 2003/03/07, 4:45,11.1,71,9.2,9.2
 2003/03/07, 5:00,11,71,9.2,9.2
 2003/03/07, 5:15,11,71,9.2,9.2
 2003/03/07, 5:30,11,71,9.2,9.2
 2003/03/07, 5:45,11,71,9.3,9.2
 2003/03/07, 6:00,10.9,72,9.3,9.3
 2003/03/07, 6:15,10.9,71.5,9.3,9.3
 2003/03/07, 6:30,15.1,70,9.3,9.3
 2003/03/07, 6:45,15.1,70.5,9.4,9.3
 2003/03/07, 7:00,15.9,73,9.4,9.3
 2003/03/07, 7:15,14.1,69,9.4,9.4
 2003/03/07, 7:30,13.3,70,9.5,9.3
 2003/03/07, 7:45,13.1,70,9.5,9.4
 2003/03/07, 8:00,12.8,70,9.5,9.4
 2003/03/07, 8:15,12.6,70,9.5,9.4
 2003/03/07, 8:30,12.5,70,9.5,9.4
 2003/03/07, 8:45,12.4,70,9.6,9.4
 2003/03/07, 9:00,12.4,70,9.6,9.5
 2003/03/07, 9:15,12.4,70,9.6,9.5
 2003/03/07, 9:30,12.3,70,9.7,9.5
 2003/03/07, 9:45,12.2,70,9.6,9.5
 2003/03/07,10:00,12.3,70,9.7,9.6
 2003/03/07,10:15,12.2,70,9.7,9.6
 2003/03/07,10:30,12.2,70,9.7,9.6
 2003/03/07,10:45,12.2,69,9.8,9.6
 2003/03/07,11:00,12.2,69,9.9,9.6
 2003/03/07,11:15,12.2,69,9.9,9.7
 2003/03/07,11:30,12.3,69,10,9.6
 2003/03/07,11:45,12.2,69,10,9.7
 2003/03/07,12:00,12.3,69,10,9.7
 2003/03/07,12:15,12.2,69,10,9.7
 2003/03/07,12:30,12.3,69,10,9.7
 2003/03/07,12:45,12.3,69,10.1,9.8
 2003/03/07,13:00,12.3,69,10.1,9.8
 2003/03/07,13:15,12.3,69,10.1,9.8
 2003/03/07,13:30,12.4,69,10.2,9.8
 2003/03/07,13:45,12.3,69,10.2,9.8
 2003/03/07,14:00,12.3,69,10.2,9.8
 2003/03/07,14:15,12.4,69,10.2,9.9
 2003/03/07,14:30,12.3,70,10.3,9.9
 2003/03/07,14:45,12.4,69.5,10.3,9.9
 2003/03/07,15:00,12.4,69,10.3,9.9
 2003/03/07,15:15,12.4,70,10.3,9.9
 2003/03/07,15:30,12.3,69,10.4,10
 2003/03/07,15:45,12.4,69,10.4,10
 2003/03/07,16:00,12.4,69,10.4,10
 2003/03/07,16:15,12.4,69,10.4,10
 2003/03/07,16:30,12.4,70,10.4,10
 2003/03/07,16:45,12.4,70,10.4,10.1
 2003/03/07,17:00,12.4,70,10.4,10.1
 2003/03/07,17:15,12.4,69.5,10.4,10.1
 2003/03/07,17:30,12.3,70,10.4,10.1
 2003/03/07,17:45,12.4,70,10.4,10.2
 2003/03/07,18:00,12.3,70,10.4,10.2
 2003/03/07,18:15,12.2,70,10.4,10.2
 2003/03/07,18:30,12.2,70,10.4,10.2
 2003/03/07,18:45,12.1,70,10.3,10.3
 2003/03/07,19:00,12,70,10.4,10.3
 2003/03/07,19:15,12,70,10.3,10.3
 2003/03/07,19:30,12,70,10.3,10.3
 2003/03/07,19:45,11.9,70,10.2,10.4
 2003/03/07,20:00,11.9,70,10.2,10.4
 2003/03/07,20:15,11.8,70,10.2,10.4
 2003/03/07,20:30,11.7,70,10.2,10.4
 2003/03/07,20:45,11.8,70,10.1,10.4
 2003/03/07,21:00,11.7,70,10.1,10.5
 2003/03/07,21:15,11.6,70,10.1,10.5
 2003/03/07,21:30,11.5,70,10.1,10.5
 2003/03/07,21:45,11.5,70.5,10.1,10.5
 2003/03/07,22:00,11.4,70,10,10.5
 2003/03/07,22:15,11.4,70,10,10.6
 2003/03/07,22:30,11.3,70,10,10.5
 2003/03/07,22:45,11.2,70,9.9,10.6
 2003/03/07,23:00,11.2,70,9.9,10.6